SAUDICOMSAT 1

Last updated on Tue Sep 22 2026 00:03:29 GMT+0000 (Coordinated Universal Time)

1 28369U 04025D 26264.32792212 .00000187 00000+0 54000-4 0 9995 2 28369 98.5792 277.0668 0033341 89.0748 271.4268 14.55528766178113
UTC large
Height (km)
Speed (km/s)
/
Latitude / Longitude
Inclination (degrees)
Orbital Period (minutes)
Azimuth
Elevation
Range (km)
Doppler Factor

Next 0 passes for location: London (51.5072 / 0.1276)

No passes found over London.
SAUDICOMSAT 1